Location: Gajan
(43.0218°N, 1.1244°E)
Time: 15:16:20
(UTC+00:00)

Cosmos 1023 Rocket - Pass Details

Date: 22 April 2021
Orbit: 736 x 772 km, 74.1° (Epoch: 12 May)

Event Time Altitude Azimuth Distance (km) Brightness Sun altitude
Rises 20:03:09 0° 189° (S) 3,155 7.5 -13.5°
Reaches altitude 10° 20:05:30 10° 187° (S) 2,235 6.7 -13.9°
Maximum altitude 20:10:30 64° 106° (ESE) 816 4.4 -14.7°
Drops below altitude 10° 20:15:32 10° 26° (NNE) 2,252 7.0 -15.4°
Sets 20:17:54 0° 24° (NNE) 3,182 7.9 -15.8°
